Location: Adrasan
(36.3319°N, 30.4314°E)
Time: 07:20:16
(UTC+00:00)

OAO 2 Rocket - Pass Details

Date: 09 December 2023
Orbit: 672 x 742 km, 35.0° (Epoch: 29 February)

Event Time Altitude Azimuth Distance (km) Brightness Sun altitude
Rises 17:01:50 0° 258° (WSW) 3,047 7.9 -27.2°
Reaches altitude 10° 17:04:12 10° 256° (WSW) 2,142 6.8 -27.7°
Enters shadow 17:08:25 60° 230° (SW) 803 3.7 -28.5°
